Location: Newark
(42.7133°N, 87.7910°W)
Time: 02:57:09
(UTC+00:00)

Vanguard 2 Rocket - Visible Passes

Search period start: 17 September 2019 00:00
Search period end: 27 September 2019 00:00
Orbit: 554 x 3327 km, 32.9° (Epoch: 16 September)

Date Brightness Start Highest point End Pass type
(mag) Time Alt. Az. Time Alt. Az. Time Alt. Az.
18 Sep 7.8 01:21:44 10° SSW 01:24:16 15° SSE 01:24:26 15° SSE visible
19 Sep 8.1 00:23:01 10° SSW 00:25:07 13° SSE 00:27:02 10° SE visible
20 Sep 7.6 01:35:03 10° SW 01:38:05 20° S 01:38:05 20° S visible
21 Sep 7.9 00:35:41 10° SW 00:39:09 19° S 00:41:58 10° SE visible
22 Sep 7.6 01:48:49 10° SW 01:51:39 21° SSW 01:51:39 21° SSW visible
23 Sep 7.7 00:49:05 10° SW 00:53:12 23° S 00:55:31 15° SE visible
24 Sep 7.9 02:02:50 10° WSW 02:05:11 19° SSW 02:05:11 19° SSW visible
25 Sep 7.5 01:02:52 10° WSW 01:07:14 25° S 01:09:01 19° SSE visible
26 Sep 8.4 02:17:07 10° WSW 02:18:41 15° SW 02:18:41 15° SW visible
